Simultaneous Nadir Overpasses (SNOs) Predictions

Prediction of SNOs between LANDSAT-8 and METOP-A Satellite Orbit:

Table of predicted SNOs for the next 14.0 days since TLE Epoch: 9/18/2016
Index Date (LANDSAT-8) Time (LANDSAT-8) Lat,Lon (LANDSAT-8) SZA (LANDSAT-8 ) Date (METOP-A) Time (METOP-A) Lat,Lon (METOP-A) SZA (METOP-A ) Distance(km) Time Diff (sec)
1 09/20/2016 21:19:49 -81.11, 79.90 97.34 09/20/2016 21:18:52 -81.11, 79.85 97.37 0.81 57
2 09/20/2016 22:09:14 81.14,-112.01 82.75 09/20/2016 22:09:31 81.13,-112.12 82.74 1.98 17
3 09/23/2016 16:54:03 -81.12, 146.43 96.21 09/23/2016 16:53:14 -81.11, 146.32 96.24 1.96 49
4 09/23/2016 17:43:28 81.15, -45.51 83.88 09/23/2016 17:43:53 81.14, -45.65 83.87 2.73 25
5 09/26/2016 12:28:18 -81.12,-147.08 95.08 09/26/2016 12:27:37 -81.11,-147.23 95.12 2.69 41
6
